This is the latest recevied weather packets stored in our database for station/object YO8SDE-8. If no packets are shown the sender has not sent any weather packets the latest 10 day(s).
| Time | Temp. | Humidity | Pressure | Rain* | Wind** | Luminosity | Snow |
|---|---|---|---|---|---|---|---|
| 1777561267 | 11.67° C | 32% | 1014 hPa | 0 mm | - | - | - |
| 1777560967 | 11.67° C | 31% | 1014.2 hPa | 0 mm | - | - | - |
| 1777560667 | 11.67° C | 32% | 1014.1 hPa | 0 mm | - | - | - |
| 1777560367 | 11.67° C | 31% | 1014.3 hPa | 0 mm | - | - | - |
| 1777560067 | 12.22° C | 31% | 1014.2 hPa | 0 mm | - | - | - |
| 1777559767 | 12.78° C | 31% | 1014.2 hPa | 0 mm | - | - | - |
| 1777559467 | 12.78° C | 31% | 1014.2 hPa | 0 mm | - | - | - |
| 1777559167 | 12.22° C | 30% | 1014.3 hPa | 0 mm | - | - | - |
| 1777558867 | 13.33° C | 29% | 1014.1 hPa | 0 mm | - | - | - |
| 1777558567 | 13.33° C | 29% | 1014.1 hPa | 0 mm | - | - | - |
| 1777558267 | 13.33° C | 29% | 1014.2 hPa | 0 mm | - | - | - |
| 1777557967 | 13.33° C | 29% | 1014.2 hPa | 0 mm | - | - | - |
| 1777557667 | 14.44° C | 28% | 1014.2 hPa | 0 mm | - | - | - |
| 1777557367 | 16.67° C | 26% | 1014.2 hPa | 0 mm | - | - | - |
| 1777557067 | 17.78° C | 27% | 1014.3 hPa | 0 mm | - | - | - |
| 1777556767 | 17.22° C | 27% | 1014.3 hPa | 0 mm | - | - | - |
| 1777556467 | 15.56° C | 28% | 1014.2 hPa | 0 mm | - | - | - |
| 1777556167 | 15.56° C | 29% | 1014.1 hPa | 0 mm | - | - | - |
| 1777555867 | 13.89° C | 30% | 1014.3 hPa | 0 mm | - | - | - |
| 1777555567 | 13.33° C | 30% | 1014.2 hPa | 0 mm | - | - | - |
| 1777555267 | 13.89° C | 29% | 1014.3 hPa | 0 mm | - | - | - |
| 1777554967 | 14.44° C | 29% | 1014.3 hPa | 0 mm | - | - | - |
| 1777554667 | 13.89° C | 30% | 1014.3 hPa | 0 mm | - | - | - |
| 1777554367 | 13.89° C | 30% | 1014.4 hPa | 0 mm | - | - | - |
| 1777554067 | 14.44° C | 29% | 1014.4 hPa | 0 mm | - | - | - |
* Rain latest hour (hover to see other rain measurements)
** Current wind speed in m/s (hover to see current wind gust speed)